LA1HSA-13 Weather Reports


Display with metric or nautical units.
time (UTC)temp
F
wind
direction
speed
MPH
gust
MPH
rain 1hr
in
rain 24hr
in
rain mn
in
humidity
%
barometer
mb
20260502164003 54 48 3.0 4.0 0.00 0.00 0.00 61 1009.5
20260502163003 55 48 2.0 4.0 0.00 0.00 0.00 61 1009.8
20260502162003 56 57 2.0 4.0 0.00 0.00 0.00 58 1009.7
20260502161003 56 36 2.0 6.0 0.00 0.00 0.00 55 1009.8
20260502152003 58 44 3.0 8.0 0.00 0.00 0.00 45 1009.6
20260502151003 60 48 4.0 8.0 0.00 0.00 0.00 41 1009.3
20260502123003 63 14 3.0 11.0 0.00 0.00 0.00 38 1010.5
20260502122003 62 26 2.0 9.0 0.00 0.00 0.00 38 1010.7
20260502121003 63 11 2.0 8.0 0.00 0.00 0.00 40 1010.5
20260502115003 62 321 1.0 7.0 0.00 0.00 0.00 38 1010.8
20260502114003 62 351 3.0 4.0 0.00 0.00 0.00 41 1010.7
20260502113004 62 322 2.0 8.0 0.00 0.00 0.00 39 1011.1
20260502112003 62 5 2.0 7.0 0.00 0.00 0.00 37 1011.0
20260502111007 62 359 3.0 7.0 0.00 0.00 0.00 36 1011.2
20260502110004 62 20 4.0 9.0 0.00 0.00 0.00 38 1011.3
20260502105003 63 19 4.0 9.0 0.00 0.00 0.00 36 1011.2
20260502104003 64 4 4.0 9.0 0.00 0.00 0.00 38 1011.4
20260502103003 64 8 4.0 11.0 0.00 0.00 0.00 35 1011.3
20260502102003 64 334 6.0 9.0 0.00 0.00 0.00 35 1011.3
20260502101003 64 332 5.0 9.0 0.00 0.00 0.00 34 1011.5
20260502091003 62 328 2.0 7.0 0.00 0.00 0.00 41 1011.7
20260502071003 55 352 2.0 7.0 0.00 0.00 0.00 59 1013.1
20260502070003 54 355 3.0 8.0 0.00 0.00 0.00 59 1013.0
20260502065003 54 323 3.0 7.0 0.00 0.00 0.00 60 1013.3
20260502064003 53 6 2.0 9.0 0.00 0.00 0.00 62 1013.3
20260502063003 52 5 5.0 9.0 0.00 0.00 0.00 62 1013.5
20260502062003 52 20 2.0 7.0 0.00 0.00 0.00 63 1013.5
20260502061003 51 7 4.0 8.0 0.00 0.00 0.00 62 1013.5
20260502060003 51 337 2.0 8.0 0.00 0.00 0.00 65 1013.7
20260502055003 50 325 2.0 4.0 0.00 0.00 0.00 67 1013.5
20260502054003 49 353 2.0 6.0 0.00 0.00 0.00 68 1013.8
20260502053003 49 350 1.0 6.0 0.00 0.00 0.00 70 1013.7
20260502052003 48 339 2.0 6.0 0.00 0.00 0.00 70 1013.9
20260502051003 48 355 2.0 7.0 0.00 0.00 0.00 71 1013.7
20260502050003 47 7 2.0 4.0 0.00 0.00 0.00 71 1013.8
20260502045003 47 19 2.0 7.0 0.00 0.00 0.00 74 1013.8
20260502044003 47 6 1.0 6.0 0.00 0.00 0.00 73 1013.8
20260502043003 47 347 2.0 6.0 0.00 0.00 0.00 73 1013.9
20260502042004 46 343 2.0 4.0 0.00 0.00 0.00 74 1014.0
20260502041003 45 355 1.0 4.0 0.00 0.00 0.00 77 1014.1
20260502040003 45 318 1.0 2.0 0.00 0.00 0.00 79 1014.0
20260502035003 44 0 0.0 2.0 0.00 0.00 0.00 79 1014.0
20260502034003 44 0 0.0 2.0 0.00 0.00 0.00 79 1014.3
20260502033003 44 0 0.0 2.0 0.00 0.00 0.00 78 1014.2
20260502032003 44 0 0.0 2.0 0.00 0.00 0.00 78 1014.5
20260502031003 45 0 0.0 4.0 0.00 0.00 0.00 78 1014.6
20260502030003 45 333 1.0 4.0 0.00 0.00 0.00 78 1014.7
20260502025003 45 341 2.0 4.0 0.00 0.00 0.00 78 1014.7
20260502024003 46 333 1.0 6.0 0.00 0.00 0.00 77 1014.9
20260502023003 46 324 2.0 4.0 0.00 0.00 0.00 77 1014.9
20260502022003 46 331 2.0 4.0 0.00 0.00 0.00 78 1015.1
20260502021003 46 330 2.0 4.0 0.00 0.00 0.00 78 1015.2
20260502020003 46 320 1.0 4.0 0.00 0.00 0.00 80 1015.2
20260502015003 46 321 1.0 4.0 0.00 0.00 0.00 79 1015.5
20260502014003 46 318 3.0 4.0 0.00 0.00 0.00 79 1015.4
20260502013003 46 288 2.0 4.0 0.00 0.00 0.00 80 1015.6
20260502012003 46 303 2.0 4.0 0.00 0.00 0.00 80 1015.7
20260502011003 47 301 2.0 4.0 0.00 0.00 0.00 79 1015.7
20260502010003 47 301 2.0 6.0 0.00 0.00 0.00 78 1015.8
20260502005003 47 309 2.0 6.0 0.00 0.00 0.00 77 1016.0
20260502004003 47 300 2.0 4.0 0.00 0.00 0.00 77 1016.0
20260502003003 48 306 2.0 4.0 0.00 0.00 0.00 76 1016.2
20260502002003 48 326 2.0 4.0 0.00 0.00 0.00 75 1016.1
20260502001003 48 297 2.0 4.0 0.00 0.00 0.00 75 1015.9
20260502000003 48 330 2.0 4.0 0.00 0.00 0.00 75 1016.3
20260501235003 48 0 0.0 4.0 0.00 0.00 0.00 75 1016.1
20260501234003 48 308 1.0 2.0 0.00 0.00 0.00 74 1016.5
20260501233003 49 317 1.0 2.0 0.00 0.00 0.00 73 1016.4
20260501232003 49 0 0.0 2.0 0.00 0.00 0.00 72 1016.8
20260501231003 49 301 1.0 4.0 0.00 0.00 0.00 72 1016.6
20260501230003 49 0 0.0 4.0 0.00 0.00 0.00 72 1016.3
20260501225003 49 0 0.0 2.0 0.00 0.00 0.00 72 1016.6
20260501224003 49 0 0.0 4.0 0.00 0.00 0.00 71 1016.6
20260501223003 50 0 0.0 2.0 0.00 0.00 0.00 71 1016.6
20260501222003 51 276 1.0 6.0 0.00 0.00 0.00 69 1016.8
20260501221003 50 0 0.0 2.0 0.00 0.00 0.00 70 1016.7
20260501220022 51 275 2.0 4.0 0.00 0.00 0.00 69 1016.8
20260501215003 50 0 0.0 2.0 0.00 0.00 0.00 71 1016.8
20260501214003 50 0 0.0 2.0 0.00 0.00 0.00 71 1016.9
20260501213003 51 0 0.0 2.0 0.00 0.00 0.00 70 1017.1
20260501212003 52 291 1.0 2.0 0.00 0.00 0.00 68 1017.2
20260501211003 53 269 1.0 4.0 0.00 0.00 0.00 68 1017.0
20260501210003 53 264 1.0 6.0 0.00 0.00 0.00 67 1017.3
20260501205003 53 278 2.0 7.0 0.00 0.00 0.00 66 1017.3
20260501204003 54 269 2.0 4.0 0.00 0.00 0.00 66 1017.3
20260501203003 53 269 2.0 4.0 0.00 0.00 0.00 68 1017.4
20260501202004 53 274 1.0 4.0 0.00 0.00 0.00 67 1017.7
20260501201003 54 251 2.0 4.0 0.00 0.00 0.00 67 1017.3
20260501200003 54 257 1.0 7.0 0.00 0.00 0.00 66 1017.4
20260501195003 55 0 0.0 6.0 0.00 0.00 0.00 65 1017.6
20260501194003 55 272 2.0 6.0 0.00 0.00 0.00 65 1017.7
20260501193003 56 250 1.0 4.0 0.00 0.00 0.00 64 1017.6
20260501192003 57 251 2.0 4.0 0.00 0.00 0.00 62 1017.6
20260501191003 58 243 2.0 6.0 0.00 0.00 0.00 60 1017.8
20260501190003 58 237 2.0 4.0 0.00 0.00 0.00 59 1017.7
20260501185003 59 0 0.0 2.0 0.00 0.00 0.00 59 1017.8
20260501184003 60 240 1.0 2.0 0.00 0.00 0.00 57 1017.6
20260501183003 61 0 0.0 4.0 0.00 0.00 0.00 56 1017.7
20260501182003 62 0 0.0 2.0 0.00 0.00 0.00 55 1017.8
20260501181003 63 254 1.0 4.0 0.00 0.00 0.00 54 1017.6
20260501180003 64 284 2.0 7.0 0.00 0.00 0.00 49 1017.7